Regional Weather Roundup
Issued by NWS Charleston, SC

Home | Current Version | Previous Version | Text Only | Print | Product List | Glossary On
Versions: 1 2 3 4 5 6 7 8 9 10 11 12 13 14 15 16 17 18 19 20 21 22 23 24 25 26 27 28 29 30 31 32 33 34 35 36 37 38 39 40 41 42 43 44 45 46 47 48 49 50
426
ASUS42 KCHS 101112
RWRCHS

REGIONAL WEATHER ROUNDUP
NATIONAL WEATHER SERVICE CHARLESTON SC
600 AM EST WED FEB 10 2016

NOTE: "FAIR" INDICATES FEW OR NO CLOUDS BELOW 12,000 FEET WITH NO
SIGNIFICANT WEATHER AND/OR OBSTRUCTIONS TO VISIBILITY.

NOT ALL STATIONS ARE QUALITY CONTROLLED BY THE NATIONAL
WEATHER SERVICE. USE DATA WITH CAUTION...ESPECIALLY
DEWPOINT OBSERVATIONS.

SCZ027-030-031-034>040-042>050-101200-
...SOUTHEAST SOUTH CAROLINA...

CITY           SKY/WX    TMP DP  RH WIND       PRES   REMARKS
N CHARLESTON   CLEAR     31  18  58 W8        30.02R WCI  23
WATERFRONT PRK   N/A     32  22  66 W6        29.85R WCI  26
MOUNT PLEASANT FAIR      32  21  64 W10       30.01R WCI  24
JOHNS ISLAND   FAIR      32  19  59 W9G16     30.03R WCI  24
PINOPOLIS        N/A     32  21  64 W14       29.90F WCI  22
MONCKS CORNER  FAIR      27  12  54 W3        30.00R
SUMMERVILLE    FAIR      32  23  69 SW9       30.03R WCI  24
BEAUFORT MCAS  CLEAR     31  19  61 W9        30.05R WCI  23
BEAUFORT ARPT  FAIR      32  21  64 W9        30.04R WCI  24
HILTON HEAD IS NOT AVBL
WALTERBORO     SUNNY     32  21  64 W13       30.04R WCI  22
ALLENDALE      FAIR      30  18  59 VRB6      30.03R WCI  24

...SOUTHERN MIDLANDS AND PEE DEE...

CITY           SKY/WX    TMP DP  RH WIND       PRES   REMARKS
GEORGETOWN     NOT AVBL
KINGSTREE      NOT AVBL
ORANGEBURG     CLEAR     29  15  56 W12       30.00R WCI  19
BARNWELL       FAIR      30  19  64 W7        30.02R WCI  23
AIKEN          FAIR      27  12  54 W12G17    30.02R WCI  16
MANNING        FAIR      30  16  55 W5G17     29.99R WCI  25
COLUMBIA       PTCLDY    28  12  51 W13       29.98R WCI  17
SUMTER         CLEAR     27  15  60 W8        29.95R WCI  19
FLORENCE       CLEAR     29  20  69 W9        29.95S WCI  20
MYRTLE BEACH   CLEAR     30  16  55 W12G18    29.98S WCI  21
N MYRTLE BEACH CLEAR     31  21  66 W8        29.95R WCI  23

$$

GAZ063-065-086>088-099>101-113>116-118-119-134>141-150-101200-
...SOUTHEAST GEORGIA...

CITY           SKY/WX    TMP DP  RH WIND       PRES   REMARKS
SAVANNAH ARPT  CLEAR     29  22  75 W8        30.07R WCI  21
HUNTER AAF     CLEAR     28  22  78 W9        30.04R WCI  20
FORT STEWART   CLEAR     30  22  70 W6        30.06R WCI  24
STATESBORO     CLEAR     33  19  57 W9        30.06R WCI  25
SYLVANIA       SUNNY     31  24  75 W9        30.06R WCI  23
CLAXTON        FAIR      31  25  76 W8        30.07S WCI  24

...CSRA...CENTRAL AND FAR SOUTHEAST GEORGIA...

CITY           SKY/WX    TMP DP  RH WIND       PRES   REMARKS
THOMSON        CLOUDY    31  19  61 W13G18    30.06R WCI  21
AUGUSTA-BUSH   CLOUDY    27  17  66 NW5       30.04R WCI  22
AUGUSTA-DANIEL MOCLDY    28  13  53 W7        30.02R WCI  21
SWAINSBORO     FAIR      30  21  69 W7        30.07R WCI  23
VIDALIA        CLEAR     30  23  74 W8        30.08R WCI  23
EASTMAN        FAIR      29  20  69 NW7       30.13R WCI  22
HAZLEHURST     FAIR      31  25  78 W3        30.09R
ALMA           CLEAR     31  22  69 NW7       30.11R WCI  24
WAYCROSS       CLEAR     32  29  88 W5        30.11R WCI  27
JESUP          FAIR      32  28  86 CALM      30.10R
BAXLEY         FAIR      32  27  80 NW6       30.10R WCI  26
BRUNSWICK      CLEAR     32  28  86 W3        30.11R
SAINT SIMONS   CLEAR     33  26  75 W6        30.10R WCI  28

$$

SCZ027-028-034-036>038-045-046-048>050-GAZ119-141-101200-
...LAKE AND SUPPLEMENTAL COASTAL OBSERVATIONS...

STATION/POSITION TIME  TEMP    WIND        PRES    WAVE   SWELL
                       AIR SEA DIR/SP/G            HT/PER HT/PER/DIR
                 (UTC) (F)     (DEG/KT/KT) (MB)    (FT/S) (FT/S/D)
WINYAH BAY       0945   32     270/  6     1013.0
LAKE MURRAY      1000   30     270/ 15/ 22 1013.9R
ACE BASIN NERRS  NOT AVBL
FORT PULASKI     1018   33 50  250/ 10/ 15 1017.8R
SAPELO ISLAND    1000   35     280/  8     1018.0S

$$

ANZ835-935-AMZ111-154-330-350-352-354-370-450-454-472-101200-
...C-MAN AND BUOY OBSERVATIONS...

STATION/POSITION TIME  TEMP    WIND        PRES    WAVE   SWELL
                       AIR SEA DIR/SP/G            HT/PER HT/PER/DIR
                 (UTC) (F)     (DEG/KT/KT) (MB)    (FT/S) (FT/S/D)
BUOY 41004       1050   41 64  280/ 27/ 33 1014.6R   8/ 7   2/16
BUOY 41008       1050   40 54  300/ 21/ 27 1018.0R   3/ 4
FOLLY BEACH CMAN 1100   31     260/  8/ 12 1016.7R
CAPERS NEARSHORE 1008   36     280/ 19/ 27 1014.9R
FRIPP NEARSHORE  1000   37     290/ 21/ 25 1016.3R


STATION/POSITION TIME  TEMP    WIND        PRES    WAVE   SWELL
                       AIR SEA DIR/SP/G            HT/PER HT/PER/DIR
                 (UTC) (F)     (DEG/KT/KT) (MB)    (FT/S) (FT/S/D)
5E ST. MARYS GA  1021      55                N/A     3/15   2/ 80/15
FRYING PAN BUOY  1000   42 58  280/ 23/ 29 1012.6R
BUOY 41025       1050   40 73  290/ 27/ 35 1009.0R   9/14   5/ 80/14
CAPE LOOKOUT NC  NOT AVBL
BUOY 41002       1050   54 68  290/ 31/ 41   N/A    15/10  10/270/10
BUOY 41010       1020   57 72              1017.2R
ST AUGUSTINE FL  1100   36 55  270/  4/  5 1020.8R


$$




USA.gov is the U.S. government's official web portal to all federal, state and local government web resources and services.